This demonstration page uses our WeatherBlox Daily Observations layout. Learn more.

Left ArrowRight Arrow

53.62937, 11.41316

Hourly Observations for March 24, 2018

Temp ( °F °C ) Dew Point ( °F °C ) Humidity (%) Winds ( mph kmh ) Pressure ( in mb ) Visibility ( mi km ) Precip ( " mm )
7:20 am 07:20 Mostly Cloudy 37 3 34 1 87 87 SE 6 9 29.65 1004 30 48 N/A
7:50 am 07:50 Mostly Cloudy 37 3 36 2 93 93 SSE 5 7 29.65 1004 30 48 N/A
8:20 am 08:20 Mostly Cloudy 39 4 36 2 87 87 SE 6 9 29.68 1005 30 48 N/A
8:50 am 08:50 Mostly Cloudy 39 4 36 2 87 87 SSE 6 9 29.68 1005 30 48 N/A
9:20 am 09:20 Mostly Sunny 39 4 36 2 87 87 SSE 6 9 29.68 1005 7 11 N/A
9:50 am 09:50 Mostly Sunny 41 5 36 2 81 81 SSE 6 9 29.68 1005 7 11 N/A
10:20 am 10:20 Mostly Sunny 41 5 36 2 81 81 SSE 7 11 29.68 1005 7 11 N/A
10:50 am 10:50 Mostly Sunny 41 5 36 2 81 81 SSE 8 13 29.68 1005 7 11 N/A
11:20 am 11:20 Mostly Sunny 43 6 36 2 76 76 SSE 6 9 29.68 1005 7 11 N/A
11:50 am 11:50 Mostly Sunny 45 7 37 3 76 76 SSE 5 7 29.68 1005 7 11 N/A
12:20 pm 12:20 Mostly Sunny 45 7 37 3 76 76 SE 7 11 29.68 1005 7 11 N/A
12:50 pm 12:50 Mostly Sunny 46 8 37 3 71 71 SE 6 9 29.68 1005 7 11 N/A
1:20 pm 13:20 Mostly Sunny 46 8 37 3 71 71 SE 6 9 29.68 1005 7 11 N/A
1:50 pm 13:50 Mostly Sunny 48 9 37 3 66 66 SE 7 11 29.68 1005 7 11 N/A
2:20 pm 14:20 Mostly Sunny 48 9 37 3 66 66 SE 6 9 29.68 1005 7 11 N/A
2:50 pm 14:50 Mostly Sunny 50 10 36 2 58 58 SE 7 11 29.68 1005 7 11 N/A
3:20 pm 15:20 Mostly Sunny 50 10 34 1 54 54 SSE 5 7 29.68 1005 7 11 N/A
3:50 pm 15:50 Mostly Cloudy 50 10 34 1 54 54 SE 6 9 29.68 1005 30 48 N/A
4:20 pm 16:20 Mostly Cloudy 48 9 34 1 58 58 SE 6 9 29.68 1005 30 48 N/A
4:50 pm 16:50 Mostly Cloudy 48 9 34 1 58 58 SE 5 7 29.68 1005 30 48 N/A
5:20 pm 17:20 Mostly Cloudy 48 9 36 2 62 62 SE 3 6 29.68 1005 30 48 N/A
5:50 pm 17:50 Mostly Cloudy 48 9 34 1 58 58 ESE 3 6 29.68 1005 30 48 N/A
6:20 pm 18:20 Mostly Sunny 46 8 34 1 62 62 ESE 5 7 29.68 1005 7 11 N/A

Powered by AerisWeather